Regional Weather Roundup
Issued by NWS

Home | Current Version | Previous Version | Graphics & Text | Print | Product List | Glossary On
Versions: 1 2 3 4 5 6 7 8 9 10 11 12 13 14 15 16 17 18 19 20 21 22 23 24 25 26 27 28 29 30 31 32 33 34 35 36 37 38 39 40 41 42 43 44 45 46 47 48 49 50
315
ASUS44 KLIX 221110
RWRLA
LOUISIANA WEATHER ROUNDUP
NATIONAL WEATHER SERVICE NEW ORLEANS LA
600 AM CDT MON SEP 22 2014

NOTE: "FAIR" INDICATES FEW OR NO CLOUDS BELOW 12,000 FEET WITH NO
      SIGNIFICANT WEATHER AND/OR OBSTRUCTIONS TO VISIBILITY.
      SKY/WX - SKY CONDITION AND SIGNIFICANT WEATHER.
      TMP - AIR TEMPERATURE.    DP   - DEWPOINT TEMPERATURE.
      RH  - RELATIVE HUMIDITY.  PRES - PRESSURE.
      HX  - HEAT INDEX.         WCI  - WIND CHILL INDEX.

*  THESE STATIONS ARE NOT NWS OR FAA STATIONS AND ARE NOT UNDER
   NWS QUALITY CONTROL.

LAZ040-048-061>063-065-066-069-221200-
SOUTHEAST LOUISIANA

CITY           SKY/WX    TMP DP  RH WIND       PRES   REMARKS
N.O. AUDUBON     N/A     73  72  98 MISG        N/A
N.O. INTL ARPT PTCLDY    73  70  90 NW3       30.02R
N.O. LAKEFRONT CLEAR     79  72  79 N7        30.02R
N.O. DOWNTOWN* FAIR      79  66  65 CALM      30.02R
SLIDELL        CLEAR     67  64  90 CALM      30.01S
BATON ROUGE    CLEAR     69  67  93 CALM      30.02S
BOOTHVILLE     CLEAR     80  73  79 N7        30.00R
BELLE CHASSE   CLEAR     70  66  87 CALM      30.01R
BOGALUSA*        N/A     67  64  89 CALM      30.03S
GALLIANO*      NOT AVBL
NEW ROADS*     FAIR      69  68  98 CALM      30.03R
GONZALES*      FAIR      68  68 100 CALM      30.02R
HAMMOND*       CLEAR     68  64  88 CALM      30.03S
HOUMA*           N/A     69  65  88 CALM      30.02R FOG
PORT FOURCHON* SUNNY     79  73  83 N9        30.04R

$$

LAZ041-044-053-054-221200-
SOUTHWEST LOUISIANA

CITY           SKY/WX    TMP DP  RH WIND       PRES   REMARKS
LAKE CHARLES   CLEAR     71  69  93 CALM      30.03R
LAFAYETTE      CLEAR     71  69  93 CALM      30.02S
PATTERSON      CLEAR     70  68  94 CALM      30.04S
SALT POINT       N/A     74  71  91 CALM      30.01R
NEW IBERIA     CLEAR     70  68  93 CALM      30.03R
CHENAULT AIRPK CLEAR     72  70  94 CALM      30.04R

$$

LAZ027-028-221200-
CENTRAL LOUISIANA

CITY           SKY/WX    TMP DP  RH WIND       PRES   REMARKS
FORT POLK      CLEAR     74  69  85 NE9       30.05S
ALEXANDRIA INT CLEAR     73  70  90 NE6       30.04R
ALEXANDRIA     CLEAR     74  69  85 CALM      30.06R

$$

LAZ001-002-221200-
NORTHWEST LOUISIANA

CITY           SKY/WX    TMP DP  RH WIND       PRES   REMARKS
SHREVEPORT     CLOUDY    75  59  57 NE10      30.11R
BARKSDALE AFB  CLOUDY    73  60  64 NE5       30.12R
DTN SHREVEPORT CLOUDY    74  58  57 NE6       30.12R

$$

LAZ014-016-221200-
NORTHEAST LOUISIANA

CITY           SKY/WX    TMP DP  RH WIND       PRES   REMARKS
MONROE         PTCLDY    70  58  65 N8        30.10R
TALLULAH       PTCLDY    71  60  68 N9        30.07R

$$




USA.gov is the U.S. government's official web portal to all federal, state and local government web resources and services.